Wind_Speed
29 31 31 31 32 33 33 35 38 40 42 43 43 42 42 40 40 39 39 38 39 39 40 40 40 40 40 41 43 44 44 43 42 42 43 44 43 42 42 42 41 40
29 30 30 30 31 32 32 34 36 39 40 42 43 42 42 42 41 40 39 39 39 40 40 40 40 41 41 41 43 44 45 45 43 42 43 45 45 44 44 43 42 41
28 29 28 28 30 31 32 34 35 37 39 40 41 42 43 42 42 41 40 40 40 40 40 39 39 40 41 42 43 44 46 45 43 42 44 47 46 45 45 45 44 43
27 28 28 28 29 30 31 33 34 36 37 39 40 41 42 42 42 42 41 41 41 40 39 39 39 41 41 41 42 44 45 45 43 43 46 48 48 47 47 46 45 44
27 28 28 28 29 30 31 32 32 34 36 37 39 40 41 41 42 41 41 42 42 40 39 39 40 41 41 41 42 44 45 45 44 44 47 49 49 48 48 47 46 46
28 28 28 29 30 30 31 31 31 32 34 35 37 38 39 40 41 41 42 43 42 41 40 40 41 41 41 41 42 44 45 44 44 45 48 50 50 49 49 48 48 46
29 29 29 29 30 30 31 31 32 32 32 33 35 36 37 39 40 41 41 42 42 42 41 40 41 41 40 41 42 43 44 44 45 46 48 50 50 50 49 49 48 47
30 31 31 31 30 30 30 31 32 32 33 33 33 34 36 37 39 40 41 41 41 42 41 40 40 40 40 40 42 43 44 44 45 47 49 51 51 50 50 49 48 47
32 32 32 32 31 31 31 30 31 32 33 33 33 34 35 36 37 39 40 41 41 41 40 39 39 39 40 41 42 43 43 44 46 47 49 51 51 51 50 49 48 48
34 34 33 33 32 32 32 32 32 32 32 33 34 34 35 35 37 38 39 39 39 39 39 38 38 39 40 41 42 43 43 45 46 47 49 51 52 51 50 50 49 49
35 35 35 34 33 32 33 33 33 33 33 34 34 35 35 36 36 37 37 37 37 38 39 38 38 39 39 40 41 41 42 44 46 47 50 52 52 52 51 51 51 50
35 35 35 35 34 34 34 34 34 34 34 35 35 35 36 36 36 36 36 36 36 37 38 38 39 39 39 39 39 40 42 45 47 48 51 53 53 52 52 52 52 52
35 35 34 35 35 35 35 35 35 35 34 34 35 36 36 36 37 36 36 35 35 37 38 38 39 39 38 37 38 41 44 47 48 49 51 53 53 53 53 53 53 53
37 35 35 35 35 36 36 35 35 35 35 35 35 36 36 37 37 36 36 36 36 37 38 38 39 39 38 38 39 42 46 48 49 50 52 53 53 53 53 53 54 54
39 37 36 35 35 35 35 35 34 34 35 36 36 36 36 36 37 37 36 36 36 38 38 38 38 39 39 39 39 41 44 47 49 51 52 52 53 53 53 54 55 55
41 39 37 36 36 35 36 35 34 34 34 35 36 37 36 37 37 37 37 37 37 38 38 38 38 39 40 39 38 39 41 45 48 51 51 51 52 53 54 55 55 55
42 40 38 38 37 36 36 36 35 34 34 35 36 36 37 37 37 37 37 37 38 39 39 39 39 39 39 39 38 38 40 44 47 50 51 51 52 53 54 54 55 55
44 42 40 39 38 37 37 37 37 36 35 35 36 36 37 38 37 37 38 38 39 39 39 38 39 39 38 38 38 38 39 43 46 49 50 50 51 52 53 54 54 54
44 43 41 40 39 39 39 39 38 37 36 35 36 37 37 38 38 38 38 38 39 39 38 39 39 38 37 37 36 35 37 42 46 49 50 49 49 50 52 53 53 53
44 43 41 41 41 41 40 40 39 38 38 37 37 37 37 38 39 39 39 38 39 39 39 39 38 38 38 35 33 32 35 41 47 49 50 49 50 51 52 53 54 55
42 42 42 42 42 42 42 41 40 39 39 38 38 38 38 39 39 40 40 39 39 40 39 38 38 39 39 36 33 34 36 41 47 51 52 52 53 54 54 55 56 56
42 42 43 43 42 42 42 41 40 40 40 39 39 38 38 39 39 40 40 39 40 39 39 38 37 38 39 38 36 38 39 41 46 52 54 55 56 56 56 56 55 54
42 42 42 41 41 41 41 40 40 40 40 40 40 39 39 39 39 40 40 40 40 39 38 38 36 37 39 39 37 38 39 41 45 51 55 56 57 57 57 56 54 53
41 41 41 40 40 40 41 40 40 40 40 40 39 39 38 38 38 39 39 39 39 38 37 36 36 37 37 36 35 36 38 40 44 49 54 56 57 57 56 54 53 52
40 40 39 39 39 39 40 40 40 40 40 39 38 38 37 37 37 37 37 37 36 35 35 34 34 34 33 32 32 34 35 38 42 47 52 54 55 55 55 54 52 51
38 38 37 38 38 38 38 39 39 39 39 38 37 36 36 35 35 34 33 32 31 30 30 30 31 31 31 32 32 33 34 36 39 43 48 51 52 52 52 50 48 44
Wind_Direction
266 265 265 265 264 263 262 261 261 261 262 262 263 264 265 265 266 266 266 266 265 265 264 262 259 256 255 252 250 251 251 251 252 251 244 238 237 236 236 238 240 241
267 267 267 266 265 264 263 261 260 261 261 262 263 263 264 265 266 267 267 267 267 266 265 264 260 256 255 253 250 249 250 251 252 251 243 238 237 236 236 238 240 241
271 271 269 266 264 264 263 262 261 261 262 262 263 263 264 265 266 267 268 268 268 267 266 264 260 256 254 253 250 248 249 251 252 250 243 238 236 235 236 238 240 241
275 274 272 268 265 263 262 263 263 264 264 264 265 265 265 266 266 267 268 268 268 268 267 264 261 257 255 252 249 247 248 250 251 248 241 238 237 236 236 238 240 242
276 277 276 274 270 266 264 264 265 266 266 266 266 266 267 267 267 267 267 268 268 269 268 265 262 259 255 252 249 247 248 250 250 246 241 238 237 236 237 239 240 242
278 278 279 279 278 276 273 270 268 267 267 268 267 267 268 268 268 268 267 268 268 269 269 266 263 260 255 251 249 248 249 249 249 246 241 239 237 237 237 239 240 243
279 279 279 279 280 281 281 279 275 272 270 270 269 270 269 269 269 269 269 268 268 268 268 266 262 259 255 252 251 251 250 249 248 245 241 239 237 236 237 239 241 243
281 280 279 279 279 280 281 282 280 276 273 272 272 272 271 271 270 269 268 268 267 267 267 264 261 258 255 253 252 252 251 250 247 244 241 238 237 237 238 240 242 243
283 282 282 281 280 280 280 280 279 276 273 272 272 273 272 272 270 269 268 268 267 267 266 263 259 257 255 254 252 251 250 249 247 244 241 239 237 238 240 241 243 244
283 283 283 283 282 281 279 279 278 276 274 271 271 271 272 272 271 270 269 268 267 266 265 263 260 257 256 254 252 250 248 247 246 243 240 239 238 239 241 242 243 244
285 284 284 285 284 283 280 279 278 277 276 273 271 271 271 271 271 270 269 268 267 266 265 264 261 259 256 253 250 249 248 247 246 243 240 239 239 240 241 242 243 245
290 288 287 286 285 284 282 280 279 278 277 276 275 273 272 272 272 271 270 268 266 265 265 265 264 261 257 253 248 245 246 247 246 242 240 239 239 240 242 243 245 247
293 291 289 287 285 284 282 281 280 279 279 279 278 276 275 274 273 272 270 268 265 264 265 265 265 262 259 254 248 244 244 246 246 243 240 239 240 241 242 244 246 248
294 293 291 288 286 284 283 282 281 280 280 280 279 278 278 276 274 271 269 267 265 265 266 265 264 264 262 258 253 248 246 246 246 243 240 240 241 241 243 245 247 250
295 293 291 289 287 286 285 284 283 281 281 280 280 280 279 277 275 272 268 266 265 265 267 265 264 264 264 262 259 255 250 248 246 242 239 240 242 244 246 247 249 251
294 293 291 289 288 286 285 284 284 282 282 281 279 279 278 278 277 274 270 267 264 264 266 265 264 263 262 262 261 258 252 248 246 241 239 240 243 245 247 248 250 252
293 292 289 288 287 286 285 284 283 282 282 281 280 278 278 277 276 274 271 267 264 264 264 265 265 264 264 264 263 259 252 248 245 241 239 241 244 246 248 250 252 253
291 290 288 287 286 285 283 282 282 281 281 281 280 279 278 276 275 273 270 267 266 265 265 266 266 265 266 267 266 261 252 247 244 240 238 240 243 246 249 251 253 255
289 288 287 286 285 283 282 281 280 281 281 280 279 278 277 277 275 274 271 268 267 267 266 266 266 266 267 267 267 261 252 246 242 238 238 240 243 246 249 251 254 256
286 286 284 283 283 282 281 281 280 279 278 278 278 277 277 276 275 274 271 268 266 266 265 265 266 266 267 266 264 259 252 247 243 239 237 240 243 246 248 250 252 254
283 282 281 280 280 280 279 279 277 277 276 277 278 277 276 275 274 273 271 269 267 266 265 264 264 264 266 264 260 256 252 248 245 240 237 238 241 244 246 248 251 253
278 278 277 278 278 277 276 276 275 275 276 276 277 277 275 274 274 273 271 269 267 266 264 262 261 261 263 263 259 255 253 250 247 243 239 238 240 243 246 248 251 254
274 274 275 275 274 274 274 273 273 274 275 276 277 276 275 274 273 272 271 269 267 266 264 262 262 261 260 261 260 257 255 254 251 246 243 241 241 243 246 248 252 255
272 272 273 273 272 272 272 271 272 273 274 275 276 276 275 273 272 271 270 268 267 265 264 263 264 263 261 260 261 262 259 256 253 248 244 242 242 244 247 250 253 256
272 273 272 271 270 270 269 270 271 272 273 274 275 274 273 272 271 270 270 269 268 267 267 266 266 266 264 262 264 264 261 258 254 250 247 245 246 248 250 252 256 262
273 272 270 269 268 268 268 269 270 271 272 273 272 271 271 270 271 270 270 269 268 267 267 266 267 268 267 266 265 265 263 260 256 252 250 249 250 252 255 260 267 275
Height
3114 3113 3113 3113 3113 3113 3113 3114 3114 3114 3114 3115 3115 3116 3116 3117 3117 3117 3117 3117 3117 3117 3117 3117 3118 3118 3118 3119 3120 3120 3121 3122 3122 3123 3124 3124 3125 3126 3126 3126 3126 3126
3110 3109 3110 3110 3109 3109 3109 3109 3109 3109 3110 3110 3111 3111 3112 3112 3112 3112 3112 3112 3113 3113 3113 3113 3113 3114 3114 3115 3115 3116 3116 3117 3118 3119 3120 3121 3121 3122 3122 3122 3122 3122
3107 3106 3106 3106 3106 3106 3105 3105 3105 3105 3105 3106 3107 3107 3108 3108 3108 3108 3108 3108 3108 3108 3109 3109 3109 3109 3110 3110 3111 3111 3112 3113 3114 3115 3116 3116 3117 3118 3118 3118 3118 3117
3104 3103 3103 3103 3102 3102 3102 3102 3101 3101 3102 3102 3103 3103 3103 3104 3104 3104 3104 3104 3104 3104 3104 3105 3105 3105 3105 3106 3106 3107 3108 3109 3110 3111 3111 3111 3112 3113 3113 3114 3113 3113
3101 3100 3100 3100 3099 3099 3098 3098 3098 3098 3098 3098 3098 3098 3099 3099 3099 3100 3100 3099 3099 3100 3100 3100 3100 3100 3101 3101 3102 3103 3103 3105 3105 3106 3107 3107 3108 3109 3109 3109 3109 3108
3098 3097 3097 3096 3096 3096 3095 3095 3095 3094 3094 3094 3093 3094 3094 3094 3094 3095 3095 3095 3095 3095 3095 3095 3095 3095 3096 3097 3098 3098 3099 3100 3101 3102 3102 3103 3104 3104 3105 3104 3104 3104
3095 3094 3094 3093 3092 3092 3092 3092 3091 3091 3090 3089 3089 3089 3089 3089 3090 3090 3090 3090 3090 3090 3090 3090 3090 3091 3092 3093 3093 3094 3095 3096 3097 3097 3098 3099 3100 3100 3100 3100 3100 3101
3092 3091 3090 3090 3089 3089 3088 3088 3088 3087 3087 3086 3085 3085 3085 3085 3085 3085 3085 3085 3085 3085 3085 3086 3086 3087 3088 3088 3089 3089 3091 3092 3092 3093 3093 3095 3096 3096 3096 3096 3097 3097
3088 3088 3087 3086 3085 3085 3085 3084 3084 3083 3083 3082 3082 3081 3081 3081 3081 3080 3080 3080 3080 3080 3081 3081 3082 3082 3083 3084 3084 3085 3086 3087 3088 3088 3090 3091 3092 3092 3092 3092 3092 3092
3084 3083 3082 3082 3081 3081 3080 3080 3079 3079 3079 3078 3078 3077 3077 3076 3076 3075 3075 3075 3076 3076 3076 3077 3078 3078 3079 3079 3080 3081 3082 3083 3084 3085 3086 3087 3088 3088 3088 3088 3087 3087
3080 3079 3078 3078 3077 3077 3076 3075 3075 3075 3075 3074 3073 3073 3072 3071 3071 3071 3070 3070 3071 3071 3072 3073 3073 3074 3074 3075 3076 3077 3078 3079 3080 3081 3082 3083 3083 3083 3083 3082 3082 3082
3076 3075 3074 3073 3073 3072 3072 3071 3071 3071 3070 3070 3069 3068 3068 3067 3067 3066 3066 3066 3066 3067 3067 3068 3069 3069 3070 3070 3072 3073 3074 3075 3076 3076 3077 3078 3079 3079 3078 3077 3077 3077
3071 3071 3070 3069 3069 3068 3067 3067 3067 3067 3066 3065 3065 3064 3063 3063 3063 3062 3062 3062 3062 3062 3063 3064 3064 3065 3065 3066 3068 3069 3069 3070 3071 3072 3073 3074 3074 3074 3073 3073 3072 3072
3067 3067 3066 3065 3064 3064 3063 3063 3063 3062 3062 3061 3060 3059 3059 3059 3058 3058 3057 3057 3058 3058 3058 3059 3059 3060 3061 3062 3063 3064 3065 3066 3066 3067 3068 3069 3070 3069 3069 3069 3068 3067
3063 3062 3062 3061 3060 3059 3059 3058 3058 3058 3057 3057 3056 3055 3055 3054 3054 3053 3053 3053 3054 3054 3054 3054 3055 3055 3057 3058 3059 3059 3060 3061 3062 3063 3064 3065 3065 3065 3065 3064 3063 3063
3059 3058 3057 3056 3056 3055 3054 3054 3054 3054 3053 3052 3052 3051 3051 3050 3049 3049 3049 3049 3049 3050 3050 3050 3050 3051 3052 3053 3054 3054 3056 3057 3057 3058 3059 3060 3061 3060 3059 3059 3058 3059
3054 3053 3053 3052 3051 3051 3050 3050 3049 3049 3049 3048 3048 3047 3047 3046 3045 3045 3044 3044 3044 3045 3045 3045 3046 3046 3047 3048 3048 3049 3050 3051 3052 3053 3055 3055 3055 3055 3054 3054 3054 3055
3049 3049 3048 3047 3047 3046 3045 3045 3045 3045 3045 3044 3043 3043 3042 3042 3041 3041 3040 3039 3039 3039 3040 3040 3041 3041 3042 3043 3043 3043 3044 3045 3047 3048 3049 3049 3049 3050 3050 3050 3050 3052
3044 3044 3043 3042 3042 3041 3041 3040 3040 3040 3040 3040 3039 3038 3037 3037 3036 3036 3035 3035 3035 3035 3035 3036 3036 3037 3037 3038 3038 3038 3039 3040 3042 3042 3043 3044 3045 3045 3045 3045 3047 3048
3040 3039 3038 3038 3037 3036 3036 3035 3035 3035 3035 3035 3034 3034 3033 3032 3031 3030 3030 3030 3030 3030 3031 3031 3031 3032 3032 3033 3033 3035 3036 3036 3037 3037 3038 3039 3040 3040 3040 3040 3041 3041
3035 3034 3034 3033 3033 3032 3031 3031 3030 3030 3030 3029 3029 3029 3028 3027 3026 3026 3025 3026 3026 3026 3026 3026 3027 3028 3028 3028 3029 3030 3030 3030 3031 3031 3032 3032 3032 3033 3033 3034 3034 3035
3030 3030 3029 3028 3028 3027 3026 3026 3025 3025 3024 3024 3024 3024 3023 3022 3022 3021 3021 3021 3021 3021 3022 3022 3023 3023 3023 3024 3025 3025 3024 3025 3025 3026 3025 3025 3026 3027 3027 3028 3029 3031
3025 3024 3023 3023 3022 3021 3021 3020 3020 3019 3019 3019 3019 3018 3018 3017 3017 3017 3016 3016 3016 3017 3017 3017 3018 3018 3019 3019 3020 3020 3021 3021 3021 3021 3020 3020 3020 3021 3021 3023 3025 3027
3019 3019 3018 3017 3017 3016 3016 3015 3015 3015 3014 3014 3014 3013 3013 3012 3012 3012 3011 3011 3012 3012 3012 3013 3013 3014 3014 3015 3016 3016 3017 3017 3017 3016 3016 3015 3015 3016 3017 3019 3021 3022
3014 3013 3012 3012 3012 3011 3011 3010 3010 3010 3009 3009 3009 3008 3007 3007 3007 3007 3007 3007 3007 3008 3008 3009 3009 3009 3010 3011 3012 3012 3012 3012 3012 3012 3012 3011 3012 3013 3014 3015 3017 3020
3008 3007 3007 3007 3006 3006 3006 3006 3005 3005 3004 3004 3003 3003 3002 3002 3002 3002 3002 3003 3003 3004 3004 3005 3005 3005 3006 3007 3007 3008 3008 3008 3008 3009 3009 3009 3009 3010 3012 3014 3017 3019